GSAT0205 (PRN E24)

Last updated on Sat Apr 13 2024 01:03:08 GMT+0100 (British Summer Time)

1 40889U 15045A 24103.24083402 -.00000006 00000+0 00000+0 0 9992 2 40889 55.2512 243.5902 0005083 44.2620 315.7298 1.70473820 53443
UTC large
Height (km)
Speed (km/s)
/
Latitude / Longitude
Inclination (degrees)
Orbital Period (minutes)
Azimuth
Elevation
Range (km)
Doppler Factor

Next 0 passes for location: London (51.5072 / 0.1276)

Sorry there are no passes over London.